DateTimeUTC,F1_A11,F1_S11,BsB_S11,BsG_S11,BsR_S11,BbsB_S11,BbsG_S11,BbsR_S11,BaB_A11,BaG_A11,BaR_A11,Tu_S11,T_S11,Uu_S11,U_S11,P_S11,T1_A11
2021-07-14T22:00:00Z,00000200,20000000,,,,,,,0000.15,-000.08,-000.40,18.8,25.5,11.9,07.9,0659.2,31.1
2021-07-14T22:01:00Z,00000200,20000000,,,,,,,-000.03,0000.23,0000.42,18.8,25.5,11.9,07.9,0659.2,31.1
2021-07-14T22:02:00Z,00000200,20000000,,,,,,,-000.08,-000.22,-000.16,18.8,25.5,11.9,07.9,0659.2,31.1
2021-07-14T22:03:00Z,00000200,60000000,,,,,,,0000.16,-000.06,0000.05,18.8,25.5,11.9,07.9,0659.2,31.1
2021-07-14T22:04:00Z,00000200,40000000,0000.93,0000.04,0000.02,0000.14,0000.20,0000.09,0000.08,0000.24,0000.23,18.9,25.3,11.9,08.1,0660.2,31.1
2021-07-14T22:05:00Z,00000200,00000000,0000.15,0000.18,-000.01,0000.11,-000.02,0000.25,0000.03,0000.21,-000.13,19.0,25.3,11.9,08.1,0660.2,31.1
2021-07-14T22:06:00Z,00000200,00000000,0000.33,0000.41,-000.02,-000.64,-000.14,0000.06,0000.06,0000.04,0000.04,19.0,25.2,12.0,08.2,0660.2,31.1
2021-07-14T22:07:00Z,00000200,00000000,0000.43,0000.07,0000.50,0000.38,-000.08,0000.19,-000.04,0000.21,-000.01,19.0,25.2,12.0,08.2,0660.2,31.1
2021-07-14T22:08:00Z,00000200,00000000,0000.11,-000.06,0000.25,0000.61,-000.01,-000.09,0000.55,-000.00,0000.26,19.0,25.2,12.0,08.2,0660.2,31.1
2021-07-14T22:09:00Z,00000200,00000000,0000.22,0000.27,0000.09,-000.06,0000.01,0000.31,-000.38,0000.10,0000.14,19.0,25.2,12.0,08.2,0660.2,31.1
2021-07-14T22:10:00Z,00000200,00000000,0000.30,0000.11,-000.24,0000.39,-000.06,0000.22,0000.20,0000.15,0000.06,19.0,25.2,12.0,08.2,0660.3,31.1
2021-07-14T22:11:00Z,00000200,00000000,-000.73,0000.36,0000.20,0000.40,-000.06,0000.17,0000.08,-000.11,0000.08,19.0,25.2,12.1,08.3,0660.2,31.1
2021-07-14T22:12:00Z,00000200,00000000,-000.02,0000.14,0000.24,0000.29,-000.08,0000.07,0000.14,-000.22,-000.17,19.0,25.2,12.0,08.2,0660.2,31.1
2021-07-14T22:13:00Z,00000200,00000000,0000.33,0000.11,0000.04,-000.17,-000.07,0000.42,-000.02,0000.46,0000.09,19.0,25.2,12.0,08.2,0660.2,31.1
2021-07-14T22:14:00Z,00000200,00000000,0000.42,0000.19,0000.01,0000.32,-000.14,0000.28,0000.24,-000.07,0000.11,19.0,25.2,12.0,08.2,0660.2,31.1
2021-07-14T22:15:00Z,00000200,00000000,0000.17,0000.14,0000.22,0000.44,-000.30,0000.11,0000.06,0000.25,-000.03,19.0,25.2,12.1,08.3,0660.3,31.1
2021-07-14T22:16:00Z,00000200,00000000,0000.63,0000.30,0000.13,-000.14,0000.22,0000.04,-000.07,-000.15,-000.07,19.0,25.2,12.1,08.3,0660.2,31.1
2021-07-14T22:17:00Z,00000200,00000000,-000.44,0000.16,-000.02,-000.35,0000.15,0000.17,-000.04,0000.23,0000.14,19.0,25.2,12.2,08.3,0660.2,31.1
2021-07-14T22:18:00Z,00000200,00000000,0000.60,0000.18,0000.32,0000.53,-000.04,0000.44,0000.20,-000.02,0000.39,19.0,25.2,12.0,08.2,0660.2,31.1
2021-07-14T22:19:00Z,00000200,00000000,0000.78,0000.30,0000.03,0000.04,0000.03,-000.07,-000.22,0000.15,-000.40,19.0,25.2,12.0,08.2,0660.2,31.1
2021-07-14T22:20:00Z,00000200,00000000,0000.11,0000.49,0000.22,-000.04,-000.14,0000.42,0000.12,-000.11,0000.12,19.0,25.2,12.1,08.3,0660.2,31.1
2021-07-14T22:21:00Z,00000200,00000000,0000.54,0000.31,0000.14,0000.40,0000.04,0000.38,0000.06,0000.11,-000.02,19.0,25.2,12.1,08.3,0660.2,31.1
2021-07-14T22:22:00Z,00000200,00000000,0000.77,0000.30,-000.08,-000.00,0000.04,0000.26,0000.30,0000.37,0000.30,19.0,25.2,12.1,08.3,0660.2,31.1
2021-07-14T22:23:00Z,00000200,00000000,0000.22,0000.08,-000.17,-000.15,-000.18,-000.10,-000.10,-000.40,0000.01,19.0,25.2,12.2,08.4,0660.2,31.1
2021-07-14T22:24:00Z,00000200,00000000,-000.03,0000.24,0000.06,-000.13,0000.07,0000.44,0000.10,0000.11,0000.19,19.0,25.2,12.2,08.3,0660.2,31.1
2021-07-14T22:25:00Z,00000200,00000000,0000.37,0000.03,0000.08,0000.47,0000.14,0000.07,-000.27,-000.39,-000.69,19.0,25.2,11.9,08.2,0660.2,31.1
2021-07-14T22:26:00Z,00000200,00000000,0000.40,-000.11,0000.25,0000.02,-000.13,0000.36,-000.28,-000.03,-000.04,18.9,25.2,11.7,08.0,0660.2,31.1
2021-07-14T22:27:00Z,00000200,00000000,-000.38,-000.13,-000.11,-000.34,-000.06,0000.04,-000.06,-000.06,0000.13,18.9,25.2,11.6,07.9,0660.2,31.1
2021-07-14T22:28:00Z,00000200,00000000,0001.06,0000.06,0000.07,-000.12,0000.27,0000.61,0000.28,0000.03,0000.07,19.0,25.2,11.6,08.0,0660.2,31.1
2021-07-14T22:29:00Z,00000200,00000000,0000.24,-000.28,-000.02,-000.31,-000.19,0000.27,-000.41,-000.21,-000.12,18.9,25.2,11.6,07.9,0660.2,31.1
2021-07-14T22:30:00Z,00000200,00000000,-000.01,-000.48,0000.04,0000.26,-000.13,-000.07,0000.22,0000.19,0000.06,18.9,25.2,11.5,07.9,0660.2,31.1
2021-07-14T22:31:00Z,00000200,00000000,0000.25,-000.12,0000.11,0000.94,-000.31,0000.05,0000.44,-000.01,0000.05,18.9,25.2,11.6,08.0,0660.2,31.1
2021-07-14T22:32:00Z,00000200,00000000,-000.31,0000.03,-000.11,0000.09,-000.21,0000.25,0000.15,0000.34,0000.11,18.9,25.1,11.6,07.9,0660.2,31.1
2021-07-14T22:33:00Z,00000200,00000000,-000.07,-000.06,0000.18,-000.17,-000.21,0000.04,-000.47,-000.23,-000.29,18.9,25.1,11.6,07.9,0660.3,31.1
2021-07-14T22:34:00Z,00000200,00000000,0000.34,-000.09,-000.25,0000.30,0000.09,0000.22,0000.07,-000.41,-000.13,18.9,25.1,11.5,07.9,0660.3,31.1
2021-07-14T22:35:00Z,00000200,00000000,-000.57,-000.12,0000.04,-000.31,-000.37,0000.44,0000.01,0000.20,-000.03,18.9,25.1,11.6,07.9,0660.3,31.1
2021-07-14T22:36:00Z,00000200,00000000,-000.57,-000.01,0000.11,0000.14,-000.20,0000.12,0000.09,0000.19,0000.34,18.9,25.1,11.5,07.9,0660.2,31.1
2021-07-14T22:37:00Z,00000200,00000000,0000.47,0000.19,0000.51,0000.18,-000.20,0000.21,0000.24,0000.34,0000.05,18.9,25.1,11.5,07.9,0660.2,31.1
2021-07-14T22:38:00Z,00000200,00000000,0000.14,-000.13,0000.03,-000.05,0000.16,0000.12,-000.24,-000.32,-000.12,18.9,25.1,11.6,07.9,0660.2,31.1
2021-07-14T22:39:00Z,00000200,00000000,0000.57,-000.34,0000.03,-000.07,-000.12,0000.19,-000.34,0000.11,-000.04,18.9,25.1,11.6,07.9,0660.3,31.1
2021-07-14T22:40:00Z,00000200,00000000,0000.11,-000.06,0000.06,0000.08,0000.03,-000.26,0000.21,-000.22,-000.08,18.9,25.1,11.5,07.9,0660.2,31.1
2021-07-14T22:41:00Z,00000200,00000000,-000.53,-000.20,-000.15,-000.07,-000.22,-000.06,0000.05,-000.08,0000.14,18.9,25.1,11.5,07.9,0660.3,31.1
2021-07-14T22:42:00Z,00000200,00000000,0000.38,-000.14,-000.09,-000.37,-000.06,-000.11,-000.01,0000.10,0000.10,18.9,25.1,11.5,07.9,0660.2,31.1
2021-07-14T22:43:00Z,00000200,00000000,-000.38,0000.39,-000.09,-000.12,0000.01,0000.14,-000.19,0000.12,-000.39,18.9,25.1,11.5,07.9,0660.2,31.1
2021-07-14T22:44:00Z,00000200,00000000,-001.06,0000.15,-000.03,-000.42,-000.10,0000.25,-000.05,-000.04,-000.08,18.9,25.1,11.4,07.8,0660.2,31.1
2021-07-14T22:45:00Z,00000200,00000000,-000.63,-000.27,0000.02,0000.11,-000.05,-000.20,0000.14,0000.02,0000.28,18.9,25.1,11.4,07.8,0660.2,31.1
2021-07-14T22:46:00Z,00000200,00000000,0000.70,-000.24,-000.04,0000.04,-000.13,-000.31,0000.06,-000.12,0000.04,18.9,25.1,11.4,07.8,0660.2,31.1
2021-07-14T22:47:00Z,00000200,00000000,0000.05,0000.10,-000.30,-000.12,0000.17,0000.00,-000.27,-000.03,-000.14,18.9,25.1,11.4,07.8,0660.2,31.1
2021-07-14T22:48:00Z,00000200,00000000,-000.03,0000.26,-000.38,-000.04,0000.13,0000.17,0000.04,0000.05,-000.06,18.9,25.1,11.3,07.8,0660.2,31.1
2021-07-14T22:49:00Z,00000200,00000000,-000.07,-000.42,-000.29,-000.04,-000.10,0000.20,0000.03,-000.16,-000.43,18.9,25.1,11.4,07.8,0660.2,31.1
2021-07-14T22:50:00Z,00000200,00000000,0000.07,-000.05,0000.13,0000.46,-000.27,0000.18,0000.05,0000.29,0000.69,18.9,25.1,11.3,07.8,0660.2,31.1
2021-07-14T22:51:00Z,00000200,00000000,-000.45,0000.20,0000.08,-000.08,0000.01,-000.28,-000.08,-000.18,-000.47,18.8,25.1,11.3,07.8,0660.2,31.1
2021-07-14T22:52:00Z,00000200,00000000,-000.12,0000.11,0000.19,0000.46,-000.10,0000.24,0000.24,-000.10,0000.33,18.8,25.0,11.3,07.8,0660.2,31.1
2021-07-14T22:53:00Z,00000200,00000000,-000.19,0000.01,-000.29,-000.00,0000.04,0000.24,-000.30,0000.07,-000.01,18.8,25.0,11.4,07.8,0660.2,31.1
2021-07-14T22:54:00Z,00000200,00000000,-000.29,-000.10,-000.06,0000.34,-000.28,0000.20,0000.08,-000.03,0000.06,18.8,25.0,11.4,07.8,0660.2,31.1
2021-07-14T22:55:00Z,00000200,00000000,-000.29,-000.15,-000.01,-000.48,-000.07,0000.12,-000.05,-000.19,-000.38,18.8,25.0,11.4,07.8,0660.2,31.1
2021-07-14T22:56:00Z,00000200,00000000,-000.45,-000.12,0000.18,-000.37,-000.05,0000.19,0000.13,0000.49,0000.29,18.8,25.0,11.3,07.8,0660.2,31.1
2021-07-14T22:57:00Z,00000200,40000000,,,,,,,-000.07,-000.07,0000.08,18.9,25.1,11.1,07.6,0660.2,31.1
2021-07-14T22:58:00Z,00000200,60000000,,,,,,,0000.28,-000.37,-000.09,18.6,25.2,11.5,07.7,0659.2,31.1
2021-07-14T22:59:00Z,00000200,20000000,,,,,,,-000.40,-000.04,-000.20,18.6,25.3,11.4,07.6,0659.2,31.1
